Regional Weather Roundup
Issued by NWS Newport/Morehead, NC

Current Version | Previous Version | Graphics & Text | Print | Product List | Glossary Off
Versions: 1 2 3 4 5 6 7 8 9 10 11 12 13 14 15 16 17 18 19 20 21 22 23 24 25 26 27 28 29 30 31 32 33 34 35 36 37 38 39 40 41 42 43 44 45 46 47 48 49 50

000
ASUS42 KMHX 200525
RWRMHX
WEATHER ROUNDUP FOR EASTERN NORTH CAROLINA
NATIONAL WEATHER SERVICE NEWPORT/MOREHEAD CITY NC
1200 AM EST MON FEB 20 2017

NOTE: "FAIR" INDICATES FEW OR NO CLOUDS BELOW 12,000 FEET
WITH NO SIGNIFICANT WEATHER AND/OR OBSTRUCTIONS TO VISIBILITY

NCZ015>017-031-032-045>047-102-103-200600-
NORTH COAST

CITY           SKY/WX    TMP DP  RH WIND       PRES   REMARKS
EDENTON        CLEAR     51  46  82 CALM      30.04S
ELIZABETH CITY CLEAR     47  44  90 CALM      30.03S
KITTY HAWK     NOT AVBL
MANTEO         CLEAR     47  45  93 CALM      30.04S

$$

NCZ045>047-081-094-103-104-200600-
CENTRAL COAST

CITY           SKY/WX    TMP DP  RH WIND       PRES   REMARKS
FRISCO         CLEAR     50  46  86 NW5       30.04S

$$

NCZ095-097-098-100-101-200600-
SOUTHERN COAST

CITY           SKY/WX    TMP DP  RH WIND       PRES   REMARKS
BEAUFORT       CLEAR     52  50  93 NW3       30.05S
CEDAR ISLAND   NOT AVBL
JACKSONVILLE   CLEAR     49  47  93 CALM      30.05S
PINEY ISLAND   CLEAR    N/A N/A N/A CALM      30.04S
WILMINGTON     CLEAR     50  47  89 CALM      30.06S


$$

NCZ011>013-027>030-043-044-078>080-089-090>093-098-200600-
COASTAL PLAIN

CITY           SKY/WX    TMP DP  RH WIND       PRES   REMARKS
AHOSKIE          N/A     52  44  73 CALM      30.06R
CLINTON        PTCLDY    50  48  93 CALM      30.08R
ELIZABETHTOWN  CLEAR     54  47  77 CALM      30.07S
GOLDSBORO      PTCLDY    52  49  88 CALM      30.05R
GREENVILLE     PTCLDY    45  36  70 CALM      30.07R
HAVELOCK       CLEAR     50  44  80 CALM      30.06S
KENANSVILLE    NOT AVBL
KINSTON        PTCLDY    55  45  69 NW3       30.07R
NEW BERN       CLEAR     50  45  83 CALM      30.06S
RICHLANDS      CLEAR     45  44  97 CALM      30.06S
ROCKY MOUNT    CLEAR     55  44  66 W5        30.07R
WASHINGTON     CLEAR     51  44  76 CALM      30.05S
WHITEVILLE     CLEAR     52  46  79 CALM      30.07S

$$

AMZ130-135-150-152-154-156-158-170-250-252-270-ANZ085-086-088-633-658-670-200600-
MARINE OBSERVATIONS

STATION/POSITION TIME  TEMP    WIND        PRES    WAVE   SWELL
                       AIR SEA DIR/SP/G            HT/PER HT/PER
                 (UTC) (F)     (DEG/KT/KT) (MB)    (FT/S) (FT/S)
CHESAPEAKE LIGHT NOT AVBL
64 E VA BEACH    0450   52 51  240/  6/  6 1016.1    2/ 7   2/ 7
DUCK             0500   54 48  220/  3/  3 1016.5
2 E DUCK         0500      49                N/A     1/ 8
OREGON INLET     0500   52 51     CALM     1017.0
13E OREGON INLT  NOT AVBL
HATTERAS CG      0500   55 57  270/  4/  4 1016.9
DIAMOND BUOY     0450   63 67  360/  6/  8 1017.3    1/ 7   2/ 7
CAPE LOOKOUT     0500   57     320/  3/  3 1017.1
BEAUFORT LAB     0500   56 53  340/  4/  5 1016.6
30 SE NEW RVR IN 0508   63     330/ 10/ 12 1017.4
30 SE NEW RVR IN 0443      63                N/A     2/ 6
27 SE WRIGHTSVLE 0408   60 59  260/  6/ 10 1016.8
5 SE WRIGHTSVLE  0408   58 56  260/  6/  8 1017.6
225 S CAPE HAT   0450   70 71  340/ 16/ 19 1015.6    6/ 7   2/13
41 SE CHARLESTON 0450   67 69  350/  8/ 10 1018.0    1/10   2/10

$$



USA.gov is the U.S. government's official web portal to all federal, state and local government web resources and services.